RADUGA 4 [-]

Last updated on Nov. 11, 2019, 4:17 a.m. UTC

1 10987U 78073A   19314.61848580  .00000071  00000-0  00000-0 0  9996
2 10987  10.5845 308.4791 0012117 333.5876  46.1567  1.00206035 95436
UTC
Height (km)
Latitude
Longitude
Inclination
Orbital Period
UTC large
Height (km)
Speed (km/s)
/
Latitude / Longitude
Inclination (degrees)
Orbital Period (minutes)
Azimuth
Elevation
Range (km)
Doppler Factor
iOS Compass Heading
iOS Angle

Next 30 passes for location: Hong Kong

Rise time Rise Azimuth (degrees) Set time Set Azimuth (degrees) Duration Max altitude (degrees)

No matching passes for this satellites